[[{"header":{"parameterUnit":"m.s-1","parameterCategory":1,"la1":30.2991,"la2":30.254,"lo1":-89.0895,"lo2":-89.0444,"dy":0.0017,"dx":0.0017,"nx":28,"ny":28,"refTime":"2024-04-07T21:00:00:Z","depth":0,"parameterNumber":2,"parameterNumberName":"U-component_of_WINDS"},"data":[0,0,0,0,0,0,0,0,0,0,0,0,0,0,0,0,0,0,0,0,0,0,0,0,0,0,0,0,0,0,0,0,0,0,0,0,0,0,0,0,0,0,0,0,0,0,0,0,0,0,0,0,0,0,0,0,0,0,-3.0365,-3.0365,0,-3.0369,-3.0369,-3.0369,-3.0338,-3.0337,-3.0336,-3.0335,-3.0339,-3.034,-3.0341,0,0,0,0,0,0,0,0,0,0,0,0,0,-3.0328,-3.0329,-3.0365,-3.0365,-3.0365,-3.0369,-3.0369,-3.0369,-3.0338,-3.0337,-3.0336,-3.0335,-3.0339,-3.034,-3.0341,0,0,0,0,0,0,0,0,0,0,0,0,0,-3.034,-3.033,-3.0365,-3.035,-3.0348,-3.0369,-3.0369,-3.0369,-3.0338,-3.0337,-3.0336,-3.0334,-3.0339,-3.034,-3.0341,-3.0376,0,0,-3.0345,-3.0346,0,0,0,0,0,0,0,0,-3.0339,-3.0341,-3.0352,-3.0351,-3.0349,-3.0352,-3.0358,-3.0371,-3.0339,-3.0342,-3.0335,-3.0334,-3.0344,-3.0345,-3.0349,-3.0376,-3.0376,-3.0346,-3.0346,-3.0347,-3.0347,0,0,0,0,0,0,0,-3.0338,-3.0341,-3.0366,-3.0352,-3.0351,-3.0343,-3.0343,-3.036,-3.035,-3.0342,-3.0339,-3.034,-3.0343,-3.0348,-3.0349,-3.0376,-3.0346,-3.0347,-3.0348,-3.0348,-3.0431,-3.0432,0,0,0,0,0,0,-3.034,-3.034,-3.0366,-3.0366,-3.0341,-3.0344,-3.0344,-3.0352,-3.035,-3.0349,-3.0342,-3.0339,-3.0346,-3.0347,-3.0349,-3.0387,-3.0347,-3.0348,-3.0349,-3.0429,-3.0431,-3.0433,0,0,0,0,0,0,-3.0339,-3.0342,-3.0366,-3.0353,-3.0355,-3.0346,-3.0355,-3.0353,-3.0357,-3.035,-3.0348,-3.0348,-3.0345,-3.0347,-3.0369,-3.0387,-3.0349,-3.035,-3.0428,-3.043,-3.0432,-3.0467,0,0,0,0,0,0,-3.0338,-3.0342,-3.0355,-3.0353,-3.0356,-3.0386,-3.0356,-3.0354,-3.036,-3.0356,-3.0355,-3.0354,-3.0344,-3.0367,-3.037,-3.0388,-3.0351,-3.0426,-3.0429,-3.0431,-3.0464,-3.0469,-3.0475,0,0,0,0,0,-3.0337,-3.0365,-3.0356,-3.036,-3.0372,-3.0388,-3.0389,-3.0377,-3.0361,-3.0374,-3.037,-3.0354,-3.0385,-3.037,-3.0373,-3.0392,-3.0425,-3.0428,-3.0431,-3.0461,-3.0468,-3.0474,0,0,0,0,0,0,-3.037,-3.0365,-3.0355,-3.0383,-3.0386,-3.0382,-3.0398,-3.0386,-3.0393,-3.0389,-3.0375,-3.0375,-3.0399,-3.0398,-3.0381,-3.0425,-3.0402,-3.0406,-3.0424,-3.0431,-3.0436,-3.0435,-3.0352,0,0,0,0,0,-3.038,-3.0393,-3.0388,-3.0414,-3.0416,-3.0407,-3.0413,-3.0404,-3.0406,-3.0407,-3.0404,-3.0407,-3.0417,-3.0424,-3.0434,-3.0464,-3.0463,-3.0479,-3.0484,-3.0489,-3.0492,-3.0506,-3.0513,-3.0443,-3.0443,-3.0443,0,0,-3.0402,-3.0401,-3.041,-3.042,-3.0422,-3.0435,-3.0408,-3.0424,-3.0433,-3.041,-3.043,-3.0428,-3.043,-3.0456,-3.0468,-3.0456,-3.0511,-3.0493,-3.0496,-3.0497,-3.051,-3.0517,-3.0522,-3.0445,-3.0444,-3.0444,0,0,-3.0448,-3.0449,-3.047,-3.0472,-3.0474,-3.0468,-3.0473,-3.0471,-3.0469,-3.0489,-3.0472,-3.0483,-3.0501,-3.0503,-3.0506,-3.0553,-3.0538,-3.0557,-3.0584,-3.0599,-3.0604,-3.0609,-3.0624,-3.0629,-3.056,-3.056,-3.056,0,-3.0474,-3.0494,-3.0482,-3.0498,-3.0503,-3.0483,-3.0503,-3.0506,-3.0511,-3.0514,-3.0501,-3.0523,-3.0524,-3.0549,-3.056,-3.0565,-3.0569,-3.0556,-3.0604,-3.0609,-3.0613,-3.0627,-3.0633,-3.0562,-3.0562,-3.0562,-3.0562,0,-3.0526,-3.0539,-3.0556,-3.0561,-3.0568,-3.0586,-3.0576,-3.0585,-3.0575,-3.057,-3.0591,-3.0591,-3.0599,-3.0605,-3.0596,-3.0629,-3.0621,-3.0607,-3.0584,-3.0622,-3.0635,-3.064,-3.0565,-3.0565,-3.0564,-3.0563,0,0,-3.0591,-3.0589,-3.0595,-3.0597,-3.0598,-3.0608,-3.0626,-3.0633,-3.064,-3.0645,-3.0658,-3.0674,-3.0661,-3.0664,-3.0656,-3.0669,-3.0704,-3.0653,-3.0652,-3.066,-3.0738,-3.0747,-3.0754,-3.0695,-3.0696,-3.0697,-3.0737,0,-3.0634,-3.0663,-3.0653,-3.0682,-3.0694,-3.0675,-3.069,-3.0692,-3.0689,-3.0698,-3.0694,-3.0705,-3.0687,-3.0689,-3.0701,-3.0697,-3.0719,-3.0694,-3.0706,-3.0706,-3.0703,-3.076,-3.077,-3.0808,-3.0742,-3.0743,-3.0744,0,-3.0687,-3.0694,-3.0724,-3.0722,-3.0727,-3.074,-3.0746,-3.0756,-3.0758,-3.0754,-3.0759,-3.0747,-3.0763,-3.0742,-3.0764,-3.0747,-3.0752,-3.075,-3.0751,-3.075,-3.0726,-3.0759,-3.082,-3.0825,-3.0752,-3.0751,-3.0751,0,-3.0729,-3.0746,-3.0765,-3.0768,-3.0767,-3.0776,-3.0776,-3.0777,-3.0782,-3.0788,-3.0791,-3.0799,-3.0802,-3.0809,-3.0799,-3.0785,-3.0821,-3.08,-3.0818,-3.0818,-3.0824,-3.0823,-3.0885,-3.0831,-3.0831,-3.0831,-3.0831,0,-3.0777,-3.0796,-3.0784,-3.0796,-3.0816,-3.0805,-3.0825,-3.0823,-3.0824,-3.0835,-3.082,-3.0831,-3.0819,-3.0828,-3.0822,-3.0839,-3.0842,-3.0838,-3.0836,-3.0838,-3.0838,-3.0839,-3.0836,-3.0832,-3.0832,-3.0832,-3.0832,0,-3.0826,-3.0819,-3.0839,-3.0837,-3.0836,-3.0851,-3.0849,-3.086,-3.0855,-3.0869,-3.0872,-3.0865,-3.0875,-3.0867,-3.0877,-3.0872,-3.0895,-3.089,-3.0895,-3.0892,-3.091,-3.0908,-3.0972,-3.098,-3.0923,-3.0924,-3.0924,0,-3.0856,-3.0869,-3.0869,-3.0875,-3.0876,-3.0886,-3.0891,-3.0881,-3.0887,-3.089,-3.09,-3.0909,-3.0915,-3.0933,-3.0928,-3.0936,-3.0929,-3.0952,-3.093,-3.0932,-3.0927,-3.0925,-3.0926,-3.0955,-3.0956,-3.0956,-3.0957,0,-3.0908,-3.0904,-3.0912,-3.0919,-3.0926,-3.0931,-3.0934,-3.094,-3.093,-3.0937,-3.0947,-3.0953,-3.0963,-3.0971,-3.0977,-3.0977,-3.0965,-3.0964,-3.0968,-3.097,-3.097,-3.0968,-3.0904,-3.0962,-3.0961,-3.0961,-3.0961,-3.0961,-3.0947,-3.0958,-3.0959,-3.0968,-3.097,-3.0974,-3.0983,-3.098,-3.0988,-3.0995,-3.0989,-3.1001,-3.1002,-3.1009,-3.101,-3.1019,-3.101,-3.1017,-3.1018,-3.1019,-3.102,-3.0971,-3.1021,-3.1021,-3.102,-3.102,-3.102,0,-3.0997,-3.0997,-3.1006,-3.1011,-3.1018,-3.1007,-3.1011,-3.1017,-3.1028,-3.103,-3.1037,-3.1048,-3.1056,-3.1053,-3.106,-3.1068,-3.1062,-3.107,-3.1068,-3.1068,-3.1029,-3.1024,-3.1074,-3.1074,-3.1074,-3.1074,-3.1074,-3.1074,-3.1024,-3.1041,-3.1037,-3.1055,-3.1055,-3.1066,-3.1069,-3.1072,-3.1074,-3.1087,-3.1094,-3.1092,-3.1091,-3.1098,-3.1105,-3.1104,-3.1107,-3.1116,-3.1112,-3.1076,-3.1071,-3.1066,-3.106,-3.1117,-3.1117,-3.115,-3.115,-3.115]},{"header":{"parameterUnit":"m.s-1","parameterCategory":1,"la1":30.2991,"la2":30.254,"lo1":-89.0895,"lo2":-89.0444,"dy":0.0017,"dx":0.0017,"nx":28,"ny":28,"refTime":"2024-04-07T21:00:00:Z","depth":0,"parameterNumber":3,"parameterNumberName":"V-component_of_WINDS"},"data":[0,0,0,0,0,0,0,0,0,0,0,0,0,0,0,0,0,0,0,0,0,0,0,0,0,0,0,0,0,0,0,0,0,0,0,0,0,0,0,0,0,0,0,0,0,0,0,0,0,0,0,0,0,0,0,0,0,0,2.5115,2.5115,0,2.5128,2.5128,2.5128,2.5098,2.5097,2.5096,2.5095,2.5107,2.5108,2.5109,0,0,0,0,0,0,0,0,0,0,0,0,0,2.5064,2.5065,2.5115,2.5115,2.5115,2.5128,2.5128,2.5128,2.5098,2.5097,2.5095,2.5094,2.5106,2.5108,2.5109,0,0,0,0,0,0,0,0,0,0,0,0,0,2.5083,2.5066,2.5115,2.5102,2.5101,2.5128,2.5128,2.5128,2.5098,2.5097,2.5095,2.5094,2.5106,2.5108,2.5109,2.5149,0,0,2.5115,2.5116,0,0,0,0,0,0,0,0,2.5082,2.5084,2.5103,2.5103,2.5101,2.511,2.5114,2.5135,2.5098,2.5099,2.5095,2.5093,2.5109,2.511,2.5116,2.515,2.515,2.5115,2.5116,2.5117,2.5117,0,0,0,0,0,0,0,2.508,2.5084,2.512,2.5104,2.5103,2.5095,2.5096,2.5118,2.5112,2.5099,2.5097,2.5099,2.5108,2.5114,2.5116,2.5151,2.5115,2.5117,2.5118,2.5118,2.522,2.5222,0,0,0,0,0,0,2.5081,2.5083,2.5119,2.512,2.5088,2.5097,2.5098,2.5108,2.5111,2.511,2.51,2.5097,2.5112,2.5114,2.5116,2.5164,2.5117,2.5119,2.512,2.5219,2.5221,2.5222,0,0,0,0,0,0,2.508,2.5084,2.5119,2.5101,2.5105,2.51,2.5111,2.5109,2.5116,2.5112,2.5111,2.5107,2.5111,2.5114,2.5142,2.5164,2.5119,2.5121,2.5217,2.5219,2.5221,2.526,0,0,0,0,0,0,2.5079,2.5084,2.5099,2.5102,2.5106,2.5144,2.5113,2.5111,2.5119,2.5116,2.5119,2.5118,2.511,2.5139,2.5144,2.5166,2.5123,2.5215,2.5218,2.5221,2.5257,2.5263,2.5269,0,0,0,0,0,2.5077,2.5109,2.51,2.5105,2.5125,2.5146,2.5148,2.5138,2.5121,2.5136,2.5134,2.5118,2.5161,2.5142,2.5147,2.517,2.5213,2.5217,2.522,2.5254,2.5262,2.5269,0,0,0,0,0,0,2.5108,2.5109,2.5099,2.5133,2.514,2.5141,2.5159,2.5147,2.5159,2.5155,2.5142,2.5143,2.5174,2.5175,2.5154,2.521,2.5184,2.5189,2.5208,2.5216,2.5222,2.5221,2.5124,0,0,0,0,0,2.5119,2.5137,2.5136,2.5166,2.517,2.5164,2.5173,2.5165,2.5171,2.5174,2.5174,2.5181,2.5196,2.5206,2.5219,2.5257,2.5258,2.5275,2.5282,2.5287,2.5291,2.5312,2.532,2.5234,2.5234,2.5234,0,0,2.5142,2.5144,2.5156,2.5172,2.5177,2.5195,2.5167,2.5187,2.5201,2.5177,2.5204,2.5205,2.5211,2.5245,2.5259,2.5246,2.5315,2.5291,2.5295,2.5297,2.5317,2.5325,2.5332,2.5237,2.5236,2.5236,0,0,2.5192,2.5196,2.5222,2.5227,2.5234,2.5231,2.5237,2.5241,2.524,2.5268,2.5251,2.5267,2.5293,2.5298,2.5305,2.536,2.5346,2.5365,2.5397,2.5418,2.5425,2.5431,2.5452,2.5459,2.5369,2.5369,2.5369,0,2.5219,2.5246,2.5236,2.5259,2.5267,2.5247,2.5274,2.5279,2.5291,2.5297,2.5282,2.5316,2.5319,2.5354,2.5368,2.5374,2.5381,2.5364,2.5425,2.5431,2.5436,2.5456,2.5463,2.5372,2.5371,2.5371,2.5371,0,2.5279,2.5299,2.5319,2.5332,2.5342,2.5366,2.536,2.5372,2.5364,2.5362,2.5391,2.5394,2.5409,2.5417,2.5408,2.5451,2.5443,2.5427,2.5401,2.5447,2.5465,2.5472,2.5375,2.5374,2.5373,2.5373,0,0,2.5348,2.5357,2.5364,2.5371,2.5378,2.5393,2.5417,2.5432,2.5443,2.5452,2.5472,2.5496,2.5482,2.5489,2.5482,2.55,2.5545,2.5482,2.5482,2.5494,2.5594,2.5606,2.5614,2.5536,2.5537,2.5538,2.5593,0,2.5399,2.544,2.5433,2.5474,2.5492,2.5475,2.5496,2.5503,2.5503,2.5518,2.5517,2.5535,2.5514,2.5519,2.5536,2.5536,2.5565,2.5532,2.5554,2.5555,2.5553,2.5624,2.5636,2.5688,2.56,2.5601,2.5602,0,2.5463,2.5476,2.5518,2.5525,2.5532,2.5551,2.5566,2.5581,2.5589,2.5588,2.5597,2.5587,2.5611,2.5585,2.5619,2.5597,2.5606,2.5607,2.5609,2.561,2.5581,2.5628,2.5704,2.5712,2.5613,2.5612,2.5611,0,2.551,2.5538,2.5567,2.5573,2.5581,2.5595,2.5599,2.5606,2.5617,2.5629,2.5636,2.5651,2.5659,2.5671,2.5665,2.5647,2.57,2.5674,2.57,2.57,2.5712,2.5711,2.5791,2.5717,2.5717,2.5717,2.5717,0,2.5567,2.5594,2.5589,2.5607,2.5637,2.5629,2.5659,2.5661,2.5668,2.5686,2.5672,2.569,2.5681,2.5698,2.5693,2.5723,2.5726,2.5726,2.5724,2.5727,2.5727,2.5733,2.5729,2.5719,2.5719,2.5718,2.5718,0,2.5624,2.5621,2.5653,2.5659,2.5661,2.5683,2.5688,2.5706,2.5705,2.5728,2.5733,2.5732,2.5752,2.5747,2.5768,2.5765,2.5802,2.5796,2.58,2.5798,2.5825,2.5823,2.5912,2.5923,2.5842,2.5843,2.5843,0,2.566,2.5681,2.569,2.5702,2.5708,2.5726,2.5737,2.5731,2.5743,2.5755,2.5771,2.579,2.5804,2.5837,2.5837,2.5854,2.5848,2.5878,2.585,2.5853,2.5849,2.5848,2.5851,2.5884,2.5885,2.5885,2.5886,0,2.5726,2.5724,2.5741,2.5758,2.5772,2.5784,2.5796,2.5806,2.58,2.5815,2.5835,2.5847,2.587,2.5888,2.5904,2.5908,2.5897,2.5895,2.5902,2.5905,2.5907,2.5907,2.5815,2.5893,2.5892,2.5891,2.5891,2.5891,2.5774,2.5793,2.5802,2.5822,2.583,2.5841,2.5859,2.5861,2.5878,2.5896,2.5891,2.5915,2.5924,2.5944,2.5951,2.5969,2.5958,2.5968,2.597,2.5973,2.5977,2.5904,2.5972,2.5972,2.5971,2.5971,2.5971,0,2.584,2.5846,2.5864,2.5881,2.5897,2.5885,2.5898,2.5912,2.5933,2.5943,2.5958,2.5983,2.6002,2.6005,2.6022,2.6037,2.6032,2.6042,2.6041,2.6042,2.5985,2.5978,2.6046,2.6046,2.6046,2.6046,2.6046,2.6046,2.5876,2.5906,2.5906,2.5941,2.5947,2.5971,2.5979,2.599,2.5998,2.6026,2.6042,2.6045,2.6052,2.6071,2.6088,2.6088,2.6096,2.6108,2.6106,2.6053,2.6046,2.6039,2.6032,2.611,2.611,2.6162,2.6162,2.6162]}]]